#timestamp,LO_Frequency,Hit 
1503813615.1,286046993.3,N
1503813635.7,286046994.1,N
1503813655.5,286046993.4,N
1503813675.3,286046993.3,N
1503813695.2,286046994.2,N
1503813715.9,286046990.1,N
1503813735.7,286046992.9,N
1503813755.6,286046991.8,N
1503813775.4,286046994.4,N
1503813795.2,286046994.3,N
1503813815.1,286046994.5,N
1503813816.0,286046994.5,N
1503813835.8,286046992.4,N
1503813855.6,286046994.8,N
1503813875.5,286046992.9,N
1503813895.3,286046991.0,N
1503813915.1,286046988.8,N
1503813935.9,286046987.2,N
1503813955.7,286046986.4,P
1503813975.5,286046987.0,N
1503813995.4,286046989.4,N
1503814015.2,286046993.8,N
1503814035.0,286046996.9,N
1503814035.9,286046996.9,N
1503814055.8,286047000.6,N
1503814075.6,286047002.3,N
1503814095.4,286047003.8,N
1503814115.2,286047001.9,N
1503814135.1,286047004.8,N
1503814136.0,286047004.8,N
1503814155.8,286047004.5,N
1503814175.6,286047006.5,N
1503814195.5,286047013.7,N
1503814215.3,286047013.9,N
1503814235.1,286047013.9,N
1503814255.9,286047015.4,N
1503814275.7,286047015.4,N
1503814295.5,286047017.2,N
1503814315.7,286047018.4,N
1503814335.5,286047018.4,N
1503814355.4,286047020.0,N
1503814375.2,286047022.0,N
1503814395.8,286047022.8,N
1503814415.6,286047022.5,N
1503814435.4,286047023.5,N
1503814455.3,286047023.1,N
1503814475.1,286047025.2,N
1503814495.8,286047023.8,N
1503814515.7,286047022.2,N
1503814535.5,286047024.7,N
1503814555.3,286047023.3,N
1503814575.2,286047023.8,N
1503814595.9,286047025.7,N
1503814615.7,286047031.2,P
1503814635.6,286047016.4,N
1503814655.4,286047019.1,N
1503814675.2,286047015.7,N
1503814695.1,286047018.3,P
1503814696.0,286047018.3,P
1503814715.8,286047000.6,N
1503814735.6,286047001.9,N
1503814755.5,286046999.8,N
1503814775.3,286047002.0,N
1503814795.1,286047003.8,N
1503814815.7,286047004.3,N
1503814835.5,286047001.9,N
1503814855.4,286047001.8,N
1503814875.2,286047001.7,N
1503814895.0,286047001.4,N
1503814895.9,286047001.4,N
1503814915.8,286047001.7,N
1503814935.6,286046999.7,N
1503814955.4,286047001.2,N
1503814975.3,286046998.7,N
1503814995.1,286046996.5,N
1503814996.0,286046996.5,N
1503815015.8,286046997.0,N
1503815035.7,286046996.9,N
1503815055.5,286046999.9,N
1503815075.3,286047001.1,N
1503815095.1,286047001.9,N
1503815115.9,286047003.9,N
1503815135.7,286047003.9,N
1503815155.5,286047003.0,N
1503815175.4,286047003.7,N
1503815195.2,286047003.1,N
1503815215.0,286047003.8,N
1503815215.9,286047003.8,N
1503815235.8,286047004.0,N
1503815255.6,286047001.5,N
1503815275.4,286047002.0,N
1503815295.3,286047002.5,N
1503815315.1,286046998.9,N
1503815316.0,286046998.9,N
1503815335.8,286047000.0,N
1503815355.7,286047000.9,N
1503815375.5,286047000.4,N
1503815395.3,286047001.0,N
1503815415.2,286046999.3,N
1503815435.9,286046998.9,N
1503815455.7,286047001.0,N
1503815475.5,286046996.5,N
1503815495.4,286046994.9,N
1503815515.2,286046996.7,N
1503815535.0,286046997.7,N
1503815535.9,286046997.7,N
1503815555.8,286046997.2,N
1503815575.6,286046994.3,N
1503815595.4,286046994.0,N
1503815615.3,286046994.0,N
1503815635.1,286046994.5,N
1503815655.8,286046993.5,N
1503815675.7,286046994.0,N
1503815695.3,286046993.5,N
1503815715.1,286046995.6,N
1503815716.0,286046995.6,N
1503815735.8,286046994.1,N
1503815755.6,286046991.9,N
1503815775.6,286046993.2,N
1503815795.5,286046990.1,P
1503815815.3,286046993.3,N
1503815835.1,286046995.8,N
1503815855.9,286046996.0,N
1503815875.7,286046995.9,N
1503815895.5,286046994.2,N
1503815915.4,286046994.0,N
1503815935.2,286046997.3,N
1503815955.0,286046996.1,N
1503815955.9,286046996.1,N
1503815975.8,286046995.7,N
1503815995.6,286046995.5,N
1503816015.4,286046992.1,P
1503816035.3,286046999.3,N
1503816055.1,286046999.0,N
1503816056.0,286046999.0,N
1503816075.8,286046997.4,N
1503816095.7,286047000.6,N
1503816115.5,286047002.1,N
1503816135.3,286047000.5,N
1503816155.1,286047001.1,N
1503816175.9,286046999.5,N
1503816195.7,286047000.8,N
1503816215.5,286047000.5,N
1503816235.4,286047000.1,N
1503816255.2,286046999.9,N
1503816275.0,286046998.8,N
1503816275.9,286046998.8,N
1503816295.8,286046996.8,N
1503816315.6,286046998.4,N
1503816335.4,286046998.2,N
1503816355.3,286047000.0,N
1503816375.1,286047006.0,N
1503816376.0,286047006.0,N
1503816395.8,286047005.3,N
1503816415.7,286047003.5,N
1503816435.5,286047001.5,N
1503816455.3,286047000.0,N
1503816475.2,286047000.4,N
1503816495.9,286047000.2,N
1503816515.7,286047001.7,N
1503816535.5,286047001.9,N
1503816555.4,286047001.7,N
1503816575.2,286047004.3,N
1503816595.0,286046999.7,N
1503816595.9,286046999.7,N
1503816615.8,286047004.3,N
1503816635.6,286047001.8,N
1503816655.4,286047001.0,N
1503816675.3,286047000.2,N
1503816695.1,286047001.2,N
1503816715.8,286047000.8,N
1503816735.7,286046996.5,N
1503816755.5,286046999.6,N
1503816775.3,286047001.0,N
1503816795.2,286046998.8,N
1503816815.9,286046998.6,N
1503816835.8,286046997.1,N
1503816855.6,286046996.7,N
1503816875.4,286046997.0,N
1503816895.3,286046995.8,N
1503816915.1,286046997.6,N
1503816916.0,286046997.6,N
1503816935.8,286046995.9,N
1503816955.7,286046996.0,N
1503816975.5,286046994.5,N
1503816995.3,286046993.5,N
1503817015.2,286046990.6,P
1503817035.9,286046990.2,N
1503817055.7,286046990.9,N
1503817075.6,286046992.2,N
1503817095.4,286046992.0,N
1503817115.2,286046991.7,N
1503817135.1,286046991.8,N
1503817136.0,286046991.8,P
1503817155.8,286047001.3,P
1503817175.6,286047004.4,N
1503817195.5,286047001.7,N
